COSMOS 2251 DEB, 34014

Orbit data source: Space-Track

COSMOS 2251 DEB, 34014 is space debris in LEO originally from a launch on Wed, 16 Jun 1993 UTC launched from the Plesetsk Missile And Space Complex (PKMTR). The debris from Iridium 33, an American commercial communications satellite, has been tracked extensively since its accidental collision with the defunct Russian satellite Cosmos 2251 in 2009. This event, occurring at high speed in low Earth orbit (LEO), generated thousands of pieces of space debris, significantly increasing the risk of further collisions. The Iridium 33 debris cloud has impacted space traffic management and orbital debris mitigation strategies, making it a subject of ongoing study in space situational awareness.

Loading next visibility...
Identifier
34014, 1993-036GZ
Orbit
LEO
Country
Flag of CISCIS
Related business
Manufacturer
Unknown
Mission
Spacecraft
Bus & Motor
Unknown
Mass
Unknown
Launch date (UTC)
1993-06-16 (33 years ago)
Launch vehicle
Unknown
Launch site
Plesetsk Missile And Space Complex (PKMTR)
Object type
Payload
Rocket body
Debris
Shape & HBR
Unknown shape, 0.1 m
Radar Cross Section
Small (<0.1 m²)

Expand to show TLE details & history
Last TLE update: 17 hours ago

TLE from 17 hours ago
0 COSMOS 2251 DEB
1 34014U 93036GZ  26120.69884825  .00005134  00000-0  76075-3 0  9995
2 34014  74.0188   9.2327 0038267 117.3335 264.4900 14.74873634913515
Epoch: 2026-04-30T16:46Z
TLE epoch observation values (Epoch: 2026-04-30T16:46:20.488Z)
Latitude
20.53515°
Longitude
-94.86944°
Altitude
650.515 km
Speed
7.533 km/s
True Right ascension
01h 01m 25s
True Declination
20° 25' 15"
Sunlit
Object was in daylight at epoch
Visualization orbit readout
Latitude
Unknown
Longitude
Unknown
Altitude
Unknown
Speed
Unknown
Apparent Right ascension
Unknown
Apparent Declination
Unknown
Sunlit
N/A
Visualization observer readout
Local Sidereal Time
17:18:46
Azimuth
Unknown
Elevation
Unknown
Doppler factor
Unknown
Orbital elements
Apogee altitude
670.003 km
Perigee altitude
616.267 km
Semi-major axis
7,021.272 km
Eccentricity
0.00383
Inclination
74.0188°
RAAN
9.2327°
Arg. of periapsis
117.3335°
True anomaly
264.05372°
Mean anomaly
264.49°
Eccentric anomaly
264.27184°
Mean motion
3.68909 °/min
Orbital period
97.58 mins
BSTAR
0.00076075
Loading maneuver chart data...
Computing Atmospheric mass density...

Documentation

Showing up to 5 results
|